Flag for U.S.A. Weather past 2 weeks in Peoria, Illinois, U.S.A.

Now
66 °F

Clear.


Feels Like: 66 °F
Forecast: 58 / 78 °F
Wind: No wind

Location: Greater Peoria Regional Airport

Current Time: May 22, 2015 at 11:36:40 PM

Latest Report: May 22, 2015 at 10:54 PM


Visibility: 10 mi

Pressure: 30.23 "Hg

Humidity: 43%

Dew point: 43 °F

Location of PeoriaLocation

Historic Weather in Peoria — Graph

°F

Peoria temperature yesterday

Maximum temperature yesterday: 70 °F (at 4:54 PM)
Minimum temperature yesterday: 46 °F (at 2:54 AM)
Average temperature yesterday: 57 °F

Past Weeks' High & Low Weather Summary

 TemperatureHumidityPressure
High83 °F (May 17, 3:54 PM)94% (May 8, 4:54 AM)30.46 "Hg (May 8, 4:54 AM)
Low43 °F (May 13, 5:54 AM)23% (May 22, 4:54 PM)29.82 "Hg (May 17, 10:54 AM)
Average64 °F67%30.07 "Hg
* Reported May 7 9:54 PM — May 22 9:54 PM, Peoria, Weather by CustomWeather, © 2015

Note: Actual official high and low records may vary slightly from our data, if they occured in-between our weather recording intervals... More about our weather records

Advertising

Peoria weather history for previous 24 hours

 ConditionsComfort  
Time TempWeatherWind HumidityBarometerVisibility
9:54 PM
Fri, May 22
70 °FClear.5 mph37%30.22 "Hg10 mi
8:54 PM72 °FSunny.5 mph34%30.21 "Hg10 mi
7:54 PM73 °FSunny.6 mph36%30.20 "Hg10 mi
6:54 PM74 °FSunny.3 mph37%30.19 "Hg10 mi
5:54 PM77 °FSunny.No wind29%30.19 "Hg10 mi
4:54 PM79 °FSunny.6 mph23%30.18 "Hg10 mi
3:54 PM78 °FSunny.6 mph28%30.20 "Hg10 mi
2:54 PM79 °FSunny.5 mph25%30.20 "Hg10 mi
1:54 PM78 °FSunny.N/A25%30.20 "Hg10 mi
12:54 PM77 °FSunny.3 mph26%30.20 "Hg10 mi
11:54 AM76 °FSunny.5 mph27%30.20 "Hg10 mi
10:54 AM73 °FSunny.No wind41%30.20 "Hg10 mi
9:54 AM70 °FSunny.No wind46%30.19 "Hg10 mi
8:54 AM64 °FSunny.No wind52%30.19 "Hg10 mi
7:54 AM60 °FSunny.3 mph60%30.17 "Hg10 mi
6:54 AM55 °FSunny.3 mph72%30.16 "Hg10 mi
5:54 AM51 °FClear.3 mph77%30.15 "Hg10 mi
4:54 AM54 °FClear.5 mph72%30.12 "Hg10 mi
3:54 AM56 °FClear.6 mph70%30.11 "Hg10 mi
2:54 AM55 °FClear.5 mph72%30.09 "Hg10 mi
1:54 AM56 °FClear.6 mph70%30.08 "Hg10 mi
12:54 AM57 °FClear.9 mph67%30.08 "Hg10 mi
11:54 PM
Thu, May 21
57 °FClear.8 mph67%30.09 "Hg10 mi
Weather by CustomWeather, © 2015

See weather overviewHow to use our weather pages